Year,Month,Day,Hour,Minute,Value (Times are PST for windspeed in km/hr)
2019,07,15,00,00,0.00
2019,07,15,00,01,0.30
2019,07,15,00,02,0.50
2019,07,15,00,03,1.20
2019,07,15,00,04,1.90
2019,07,15,00,05,1.80
2019,07,15,00,06,1.60
2019,07,15,00,07,2.50
2019,07,15,00,08,1.50
2019,07,15,00,09,2.60
2019,07,15,00,10,2.40
2019,07,15,00,11,1.60
2019,07,15,00,12,1.40
2019,07,15,00,13,1.90
2019,07,15,00,14,3.10
2019,07,15,00,15,3.00
2019,07,15,00,16,4.00
2019,07,15,00,17,3.90
2019,07,15,00,18,3.80
2019,07,15,00,19,4.70
2019,07,15,00,20,4.30
2019,07,15,00,21,4.10
2019,07,15,00,22,3.00
2019,07,15,00,23,3.10
2019,07,15,00,24,2.60
2019,07,15,00,25,1.40
2019,07,15,00,26,3.00
2019,07,15,00,27,2.70
2019,07,15,00,28,2.70
2019,07,15,00,29,0.30
2019,07,15,00,30,1.90
2019,07,15,00,31,0.60
2019,07,15,00,32,2.90
2019,07,15,00,33,2.20
2019,07,15,00,34,1.00
2019,07,15,00,35,4.50
2019,07,15,00,36,1.40
2019,07,15,00,37,2.50
2019,07,15,00,38,3.90
2019,07,15,00,39,3.30
2019,07,15,00,40,2.00
2019,07,15,00,41,2.80
2019,07,15,00,42,2.50
2019,07,15,00,43,2.60
2019,07,15,00,44,3.10
2019,07,15,00,45,2.10
2019,07,15,00,46,2.00
2019,07,15,00,47,2.50
2019,07,15,00,48,1.90
2019,07,15,00,49,1.60
2019,07,15,00,50,1.90
2019,07,15,00,51,2.20
2019,07,15,00,52,2.60
2019,07,15,00,53,2.00
2019,07,15,00,54,1.50
2019,07,15,00,55,1.40
2019,07,15,00,56,1.10
2019,07,15,00,57,0.60
2019,07,15,00,58,2.70
2019,07,15,00,59,3.70
2019,07,15,01,00,2.60
2019,07,15,01,01,3.80
2019,07,15,01,02,4.50
2019,07,15,01,03,2.90
2019,07,15,01,04,3.60
2019,07,15,01,05,2.80
2019,07,15,01,06,2.10
2019,07,15,01,07,2.10
2019,07,15,01,08,1.90
2019,07,15,01,09,2.30
2019,07,15,01,10,1.40
2019,07,15,01,11,1.50
2019,07,15,01,12,0.80
2019,07,15,01,13,2.40
2019,07,15,01,14,2.30
2019,07,15,01,15,2.80
2019,07,15,01,16,2.10
2019,07,15,01,17,2.70
2019,07,15,01,18,2.70
2019,07,15,01,19,2.60
2019,07,15,01,20,2.00
2019,07,15,01,21,0.20
2019,07,15,01,22,1.30
2019,07,15,01,23,3.50
2019,07,15,01,24,3.00
2019,07,15,01,25,3.70
2019,07,15,01,26,3.50
2019,07,15,01,27,4.50
2019,07,15,01,28,2.50
2019,07,15,01,29,3.00
2019,07,15,01,30,3.10
2019,07,15,01,31,3.20
2019,07,15,01,32,3.90
2019,07,15,01,33,3.40
2019,07,15,01,34,2.00
2019,07,15,01,35,2.60
2019,07,15,01,36,4.00
2019,07,15,01,37,2.50
2019,07,15,01,38,1.50
2019,07,15,01,39,1.60
2019,07,15,01,40,2.30
2019,07,15,01,41,1.10
2019,07,15,01,42,2.50
2019,07,15,01,43,0.60
2019,07,15,01,44,2.10
2019,07,15,01,45,2.60
2019,07,15,01,46,3.00
2019,07,15,01,47,2.70
2019,07,15,01,48,2.30
2019,07,15,01,49,5.10
2019,07,15,01,50,3.40
2019,07,15,01,51,3.10
2019,07,15,01,52,4.50
2019,07,15,01,53,3.50
2019,07,15,01,54,3.20
2019,07,15,01,55,2.70
2019,07,15,01,56,4.40
2019,07,15,01,57,3.50
2019,07,15,01,58,4.90
2019,07,15,01,59,4.10
2019,07,15,02,00,2.90
2019,07,15,02,01,2.60
2019,07,15,02,02,1.80
2019,07,15,02,03,3.00
2019,07,15,02,04,2.80
2019,07,15,02,05,4.50
2019,07,15,02,06,4.00
2019,07,15,02,07,4.20
2019,07,15,02,08,3.90
2019,07,15,02,09,3.40
2019,07,15,02,10,3.00
2019,07,15,02,11,4.70
2019,07,15,02,12,3.80
2019,07,15,02,13,4.30
2019,07,15,02,14,3.60
2019,07,15,02,15,4.10
2019,07,15,02,16,2.60
2019,07,15,02,17,1.80
2019,07,15,02,18,2.40
2019,07,15,02,19,3.10
2019,07,15,02,20,2.70
2019,07,15,02,21,1.90
2019,07,15,02,22,1.80
2019,07,15,02,23,2.40
2019,07,15,02,24,3.30
2019,07,15,02,25,4.10
2019,07,15,02,26,2.60
2019,07,15,02,27,1.40
2019,07,15,02,28,3.70
2019,07,15,02,29,2.70
2019,07,15,02,30,3.40
2019,07,15,02,31,4.40
2019,07,15,02,32,4.20
2019,07,15,02,33,3.00
2019,07,15,02,34,3.30
2019,07,15,02,35,3.90
2019,07,15,02,36,3.70
2019,07,15,02,37,3.20
2019,07,15,02,38,2.90
2019,07,15,02,39,3.50
2019,07,15,02,40,4.30
2019,07,15,02,41,2.80
2019,07,15,02,42,3.80
2019,07,15,02,43,3.50
2019,07,15,02,44,1.40
2019,07,15,02,45,1.90
2019,07,15,02,46,3.10
2019,07,15,02,47,3.90
2019,07,15,02,48,2.80
2019,07,15,02,49,2.40
2019,07,15,02,50,1.80
2019,07,15,02,51,2.50
2019,07,15,02,52,1.70
2019,07,15,02,53,2.90
2019,07,15,02,54,2.90
2019,07,15,02,55,3.30
2019,07,15,02,56,4.20
2019,07,15,02,57,5.20
2019,07,15,02,58,4.60
2019,07,15,02,59,4.30
2019,07,15,03,00,5.10
2019,07,15,03,01,3.50
2019,07,15,03,02,3.10
2019,07,15,03,03,3.20
2019,07,15,03,04,3.50
2019,07,15,03,05,2.20
2019,07,15,03,06,3.10
2019,07,15,03,07,3.30
2019,07,15,03,08,1.50
2019,07,15,03,09,3.30
2019,07,15,03,10,2.50
2019,07,15,03,11,2.70
2019,07,15,03,12,2.80
2019,07,15,03,13,3.40
2019,07,15,03,14,3.10
2019,07,15,03,15,2.60
2019,07,15,03,16,2.70
2019,07,15,03,17,2.30
2019,07,15,03,18,3.50
2019,07,15,03,19,2.10
2019,07,15,03,20,2.50
2019,07,15,03,21,1.40
2019,07,15,03,22,2.20
2019,07,15,03,23,3.10
2019,07,15,03,24,2.70
2019,07,15,03,25,2.50
2019,07,15,03,26,3.20
2019,07,15,03,27,3.30
2019,07,15,03,28,3.00
2019,07,15,03,29,4.00
2019,07,15,03,30,4.30
2019,07,15,03,31,2.60
2019,07,15,03,32,1.80
2019,07,15,03,33,3.60
2019,07,15,03,34,2.10
2019,07,15,03,35,2.50
2019,07,15,03,36,3.40
2019,07,15,03,37,3.90
2019,07,15,03,38,3.50
2019,07,15,03,39,2.50
2019,07,15,03,40,2.70
2019,07,15,03,41,2.20
2019,07,15,03,42,2.00
2019,07,15,03,43,2.30
2019,07,15,03,44,2.50
2019,07,15,03,45,1.80
2019,07,15,03,46,3.50
2019,07,15,03,47,2.60
2019,07,15,03,48,1.90
2019,07,15,03,49,2.60
2019,07,15,03,50,2.50
2019,07,15,03,51,3.20
2019,07,15,03,52,1.70
2019,07,15,03,53,2.20
2019,07,15,03,54,2.70
2019,07,15,03,55,2.60
2019,07,15,03,56,2.10
2019,07,15,03,57,2.30
2019,07,15,03,58,2.30
2019,07,15,03,59,2.20
2019,07,15,04,00,2.90
2019,07,15,04,01,3.40
2019,07,15,04,02,3.20
2019,07,15,04,03,3.90
2019,07,15,04,04,3.50
2019,07,15,04,05,3.00
2019,07,15,04,06,3.00
2019,07,15,04,07,2.70
2019,07,15,04,08,1.90
2019,07,15,04,09,2.80
2019,07,15,04,10,2.80
2019,07,15,04,11,2.60
2019,07,15,04,12,3.00
2019,07,15,04,13,3.00
2019,07,15,04,14,3.30
2019,07,15,04,15,1.90
2019,07,15,04,16,0.20
2019,07,15,04,17,2.50
2019,07,15,04,18,1.70
2019,07,15,04,19,3.10
2019,07,15,04,20,2.80
2019,07,15,04,21,0.90
2019,07,15,04,22,0.50
2019,07,15,04,23,0.70
2019,07,15,04,24,1.30
2019,07,15,04,25,1.10
2019,07,15,04,26,0.20
2019,07,15,04,27,0.00
2019,07,15,04,28,0.00
2019,07,15,04,29,1.40
2019,07,15,04,30,0.40
2019,07,15,04,31,0.00
2019,07,15,04,32,0.00
2019,07,15,04,33,0.00
2019,07,15,04,34,0.00
2019,07,15,04,35,0.00
2019,07,15,04,36,0.00
2019,07,15,04,37,0.00
2019,07,15,04,38,0.00
2019,07,15,04,39,0.00
2019,07,15,04,40,0.00
2019,07,15,04,41,0.70
2019,07,15,04,42,1.90
2019,07,15,04,43,2.30
2019,07,15,04,44,2.10
2019,07,15,04,45,0.90
2019,07,15,04,46,1.40
2019,07,15,04,47,1.90
2019,07,15,04,48,1.90
2019,07,15,04,49,2.60
2019,07,15,04,50,1.80
2019,07,15,04,51,2.20
2019,07,15,04,52,1.40
2019,07,15,04,53,1.80
2019,07,15,04,54,2.10
2019,07,15,04,55,2.90
2019,07,15,04,56,3.30
2019,07,15,04,57,3.60
2019,07,15,04,58,3.40
2019,07,15,04,59,5.00
2019,07,15,05,00,2.30
2019,07,15,05,01,3.60
2019,07,15,05,02,3.70
2019,07,15,05,03,2.70
2019,07,15,05,04,4.60
2019,07,15,05,05,3.50
2019,07,15,05,06,2.30
2019,07,15,05,07,2.90
2019,07,15,05,08,2.80
2019,07,15,05,09,4.30
2019,07,15,05,10,3.70
2019,07,15,05,11,5.10
2019,07,15,05,12,4.60
2019,07,15,05,13,4.60
2019,07,15,05,14,5.30
2019,07,15,05,15,4.70
2019,07,15,05,16,4.50
2019,07,15,05,17,4.40
2019,07,15,05,18,3.60
2019,07,15,05,19,4.40
2019,07,15,05,20,5.20
2019,07,15,05,21,5.30
2019,07,15,05,22,4.50
2019,07,15,05,23,4.60
2019,07,15,05,24,5.60
2019,07,15,05,25,5.50
2019,07,15,05,26,3.50
2019,07,15,05,27,2.70
2019,07,15,05,28,3.40
2019,07,15,05,29,2.80
2019,07,15,05,30,3.30
2019,07,15,05,31,3.00
2019,07,15,05,32,3.70
2019,07,15,05,33,3.00
2019,07,15,05,34,3.10
2019,07,15,05,35,4.60
2019,07,15,05,36,3.50
2019,07,15,05,37,3.20
2019,07,15,05,38,3.80
2019,07,15,05,39,2.90
2019,07,15,05,40,2.80
2019,07,15,05,41,2.40
2019,07,15,05,42,2.80
2019,07,15,05,43,2.30
2019,07,15,05,44,3.00
2019,07,15,05,45,3.60
2019,07,15,05,46,2.60
2019,07,15,05,47,1.60
2019,07,15,05,48,2.30
2019,07,15,05,49,1.50
2019,07,15,05,50,1.60
2019,07,15,05,51,1.90
2019,07,15,05,52,2.20
2019,07,15,05,53,1.90
2019,07,15,05,54,1.40
2019,07,15,05,55,1.40
2019,07,15,05,56,1.40
2019,07,15,05,57,2.60
2019,07,15,05,58,1.00
2019,07,15,05,59,0.10
2019,07,15,06,00,1.00
2019,07,15,06,01,0.00
2019,07,15,06,02,1.40
2019,07,15,06,03,2.00
2019,07,15,06,04,1.50
2019,07,15,06,05,0.70
2019,07,15,06,06,0.90
2019,07,15,06,07,0.70
2019,07,15,06,08,1.50
2019,07,15,06,09,0.20
2019,07,15,06,10,0.00
2019,07,15,06,11,0.00
2019,07,15,06,12,0.00
2019,07,15,06,13,0.00
2019,07,15,06,14,0.00
2019,07,15,06,15,0.00
2019,07,15,06,16,0.00
2019,07,15,06,17,0.00
2019,07,15,06,18,0.00
2019,07,15,06,19,0.00
2019,07,15,06,20,0.00
2019,07,15,06,21,0.00
2019,07,15,06,22,0.00
2019,07,15,06,23,0.60
2019,07,15,06,24,1.20
2019,07,15,06,25,0.80
2019,07,15,06,26,1.70
2019,07,15,06,27,1.80
2019,07,15,06,28,1.70
2019,07,15,06,29,2.60
2019,07,15,06,30,3.30
2019,07,15,06,31,1.90
2019,07,15,06,32,2.10
2019,07,15,06,33,3.30
2019,07,15,06,34,1.70
2019,07,15,06,35,2.40
2019,07,15,06,36,2.30
2019,07,15,06,37,2.20
2019,07,15,06,38,3.00
2019,07,15,06,39,5.20
2019,07,15,06,40,4.20
2019,07,15,06,41,4.30
2019,07,15,06,42,3.40
2019,07,15,06,43,2.00
2019,07,15,06,44,1.20
2019,07,15,06,45,0.80
2019,07,15,06,46,2.70
2019,07,15,06,47,2.20
2019,07,15,06,48,0.60
2019,07,15,06,49,1.10
2019,07,15,06,50,0.80
2019,07,15,06,51,0.00
2019,07,15,06,52,0.00
2019,07,15,06,53,0.00
2019,07,15,06,54,0.00
2019,07,15,06,55,0.80
2019,07,15,06,56,2.60
2019,07,15,06,57,1.70
2019,07,15,06,58,1.50
2019,07,15,06,59,1.80
2019,07,15,07,00,1.50
2019,07,15,07,01,1.80
2019,07,15,07,02,0.60
2019,07,15,07,03,0.20
2019,07,15,07,04,3.00
2019,07,15,07,05,1.60
2019,07,15,07,06,1.80
2019,07,15,07,07,2.00
2019,07,15,07,08,2.60
2019,07,15,07,09,2.30
2019,07,15,07,10,1.90
2019,07,15,07,11,3.40
2019,07,15,07,12,1.70
2019,07,15,07,13,1.40
2019,07,15,07,14,0.40
2019,07,15,07,15,1.30
2019,07,15,07,16,1.10
2019,07,15,07,17,1.20
2019,07,15,07,18,2.80
2019,07,15,07,19,1.50
2019,07,15,07,20,1.00
2019,07,15,07,21,1.80
2019,07,15,07,22,0.60
2019,07,15,07,23,1.20
2019,07,15,07,24,0.90
2019,07,15,07,25,3.00
2019,07,15,07,26,3.30
2019,07,15,07,27,2.10
2019,07,15,07,28,1.40
2019,07,15,07,29,1.90
2019,07,15,07,30,2.60
2019,07,15,07,31,1.20
2019,07,15,07,32,3.30
2019,07,15,07,33,2.70
2019,07,15,07,34,1.50
2019,07,15,07,35,3.70
2019,07,15,07,36,2.80
2019,07,15,07,37,4.10
2019,07,15,07,38,3.30
2019,07,15,07,39,3.10
2019,07,15,07,40,1.10
2019,07,15,07,41,1.00
2019,07,15,07,42,3.50
2019,07,15,07,43,3.50
2019,07,15,07,44,1.30
2019,07,15,07,45,3.20
2019,07,15,07,46,3.80
2019,07,15,07,47,5.20
2019,07,15,07,48,2.30
2019,07,15,07,49,3.90
2019,07,15,07,50,4.30
2019,07,15,07,51,6.60
2019,07,15,07,52,2.40
2019,07,15,07,53,4.90
2019,07,15,07,54,3.40
2019,07,15,07,55,4.30
2019,07,15,07,56,3.80
2019,07,15,07,57,4.70
2019,07,15,07,58,2.50
2019,07,15,07,59,2.90
2019,07,15,08,00,3.40
2019,07,15,08,01,2.80
2019,07,15,08,02,5.60
2019,07,15,08,03,7.00
2019,07,15,08,04,6.10
2019,07,15,08,05,5.10
2019,07,15,08,06,3.20
2019,07,15,08,07,3.30
2019,07,15,08,08,5.20
2019,07,15,08,09,5.30
2019,07,15,08,10,5.30
2019,07,15,08,11,3.90
2019,07,15,08,12,3.70
2019,07,15,08,13,4.30
2019,07,15,08,14,4.60
2019,07,15,08,15,5.80
2019,07,15,08,16,5.80
2019,07,15,08,17,4.70
2019,07,15,08,18,4.70
2019,07,15,08,19,5.80
2019,07,15,08,20,5.00
2019,07,15,08,21,3.40
2019,07,15,08,22,4.40
2019,07,15,08,23,3.40
2019,07,15,08,24,5.20
2019,07,15,08,25,2.80
2019,07,15,08,26,6.10
2019,07,15,08,27,2.60
2019,07,15,08,28,6.40
2019,07,15,08,29,5.20
2019,07,15,08,30,5.40
2019,07,15,08,31,5.00
2019,07,15,08,32,4.40
2019,07,15,08,33,2.50
2019,07,15,08,34,3.10
2019,07,15,08,35,4.00
2019,07,15,08,36,4.80
2019,07,15,08,37,5.30
2019,07,15,08,38,1.40
2019,07,15,08,39,5.20
2019,07,15,08,40,4.30
2019,07,15,08,41,2.40
2019,07,15,08,42,0.70
2019,07,15,08,43,1.00
2019,07,15,08,44,6.40
2019,07,15,08,45,4.40
2019,07,15,08,46,5.80
2019,07,15,08,47,4.90
2019,07,15,08,48,3.90
2019,07,15,08,49,2.50
2019,07,15,08,50,4.80
2019,07,15,08,51,2.50
2019,07,15,08,52,3.20
2019,07,15,08,53,7.00
2019,07,15,08,54,5.60
2019,07,15,08,55,3.10
2019,07,15,08,56,3.90
2019,07,15,08,57,2.60
2019,07,15,08,58,0.20
2019,07,15,08,59,0.50
2019,07,15,09,00,1.80
2019,07,15,09,01,7.30
2019,07,15,09,02,6.50
2019,07,15,09,03,8.20
2019,07,15,09,04,6.40
2019,07,15,09,05,5.50
2019,07,15,09,06,6.70
2019,07,15,09,07,8.10
2019,07,15,09,08,6.90
2019,07,15,09,09,5.50
2019,07,15,09,10,4.60
2019,07,15,09,11,4.80
2019,07,15,09,12,4.00
2019,07,15,09,13,6.70
2019,07,15,09,14,7.00
2019,07,15,09,15,4.30
2019,07,15,09,16,3.70
2019,07,15,09,17,4.80
2019,07,15,09,18,3.50
2019,07,15,09,19,4.90
2019,07,15,09,20,3.90
2019,07,15,09,21,6.40
2019,07,15,09,22,6.20
2019,07,15,09,23,3.40
2019,07,15,09,24,1.40
2019,07,15,09,25,3.90
2019,07,15,09,26,3.30
2019,07,15,09,27,5.10
2019,07,15,09,28,6.10
2019,07,15,09,29,2.50
2019,07,15,09,30,5.30
2019,07,15,09,31,4.60
2019,07,15,09,32,7.00
2019,07,15,09,33,9.00
2019,07,15,09,34,6.10
2019,07,15,09,35,4.70
2019,07,15,09,36,8.20
2019,07,15,09,37,6.30
2019,07,15,09,38,7.40
2019,07,15,09,39,7.10
2019,07,15,09,40,6.20
2019,07,15,09,41,9.20
2019,07,15,09,42,7.80
2019,07,15,09,43,4.90
2019,07,15,09,44,5.50
2019,07,15,09,45,8.10
2019,07,15,09,46,5.90
2019,07,15,09,47,4.70
2019,07,15,09,48,5.00
2019,07,15,09,49,8.80
2019,07,15,09,50,6.00
2019,07,15,09,51,6.30
2019,07,15,09,52,6.40
2019,07,15,09,53,8.00
2019,07,15,09,54,6.10
2019,07,15,09,55,9.10
2019,07,15,09,56,7.00
2019,07,15,09,57,7.70
2019,07,15,09,58,7.90
2019,07,15,09,59,6.30
2019,07,15,10,00,8.40
2019,07,15,10,01,4.40
2019,07,15,10,02,5.30
2019,07,15,10,03,5.60
2019,07,15,10,04,5.60
2019,07,15,10,05,3.50
2019,07,15,10,06,5.80
2019,07,15,10,07,5.10
2019,07,15,10,08,5.70
2019,07,15,10,09,4.00
2019,07,15,10,10,6.50
2019,07,15,10,11,6.70
2019,07,15,10,12,6.50
2019,07,15,10,13,7.60
2019,07,15,10,14,2.50
2019,07,15,10,15,4.00
2019,07,15,10,16,4.10
2019,07,15,10,17,3.90
2019,07,15,10,18,4.20
2019,07,15,10,19,11.10
2019,07,15,10,20,8.40
2019,07,15,10,21,7.40
2019,07,15,10,22,8.50
2019,07,15,10,23,7.60
2019,07,15,10,24,7.20
2019,07,15,10,25,6.10
2019,07,15,10,26,6.80
2019,07,15,10,27,5.80
2019,07,15,10,28,4.10
2019,07,15,10,29,5.20
2019,07,15,10,30,8.10
2019,07,15,10,31,5.80
2019,07,15,10,32,4.30
2019,07,15,10,33,7.30
2019,07,15,10,34,7.10
2019,07,15,10,35,5.30
2019,07,15,10,36,5.50
2019,07,15,10,37,3.40
2019,07,15,10,38,3.70
2019,07,15,10,39,5.50
2019,07,15,10,40,5.50
2019,07,15,10,41,5.60
2019,07,15,10,42,4.70
2019,07,15,10,43,6.90
2019,07,15,10,44,4.20
2019,07,15,10,45,6.90
2019,07,15,10,46,6.40
2019,07,15,10,47,4.80
2019,07,15,10,48,7.90
2019,07,15,10,49,10.20
2019,07,15,10,50,10.40
2019,07,15,10,51,6.60
2019,07,15,10,52,5.80
2019,07,15,10,53,6.60
2019,07,15,10,54,4.90
2019,07,15,10,55,3.60
2019,07,15,10,56,6.60
2019,07,15,10,57,5.80
2019,07,15,10,58,5.80
2019,07,15,10,59,6.90
2019,07,15,11,00,9.30
2019,07,15,11,01,12.20
2019,07,15,11,02,9.20
2019,07,15,11,03,6.70
2019,07,15,11,04,9.10
2019,07,15,11,05,4.90
2019,07,15,11,06,5.30
2019,07,15,11,07,8.60
2019,07,15,11,08,7.20
2019,07,15,11,09,7.20
2019,07,15,11,10,5.20
2019,07,15,11,11,5.30
2019,07,15,11,12,3.90
2019,07,15,11,13,5.30
2019,07,15,11,14,9.20
2019,07,15,11,15,6.00
2019,07,15,11,16,7.00
2019,07,15,11,17,5.40
2019,07,15,11,18,5.70
2019,07,15,11,19,6.80
2019,07,15,11,20,6.40
2019,07,15,11,21,6.50
2019,07,15,11,22,5.20
2019,07,15,11,23,6.00
2019,07,15,11,24,7.50
2019,07,15,11,25,7.70
2019,07,15,11,26,4.70
2019,07,15,11,27,6.80
2019,07,15,11,28,7.50
2019,07,15,11,29,4.30
2019,07,15,11,30,4.60
2019,07,15,11,31,6.10
2019,07,15,11,32,8.70
2019,07,15,11,33,8.90
2019,07,15,11,34,9.70
2019,07,15,11,35,7.50
2019,07,15,11,36,7.60
2019,07,15,11,37,8.70
2019,07,15,11,38,5.50
2019,07,15,11,39,6.70
2019,07,15,11,40,7.10
2019,07,15,11,41,6.00
2019,07,15,11,42,5.50
2019,07,15,11,43,7.90
2019,07,15,11,44,6.90
2019,07,15,11,45,3.80
2019,07,15,11,46,7.10
2019,07,15,11,47,6.40
2019,07,15,11,48,5.10
2019,07,15,11,49,4.30
2019,07,15,11,50,4.40
2019,07,15,11,51,8.90
2019,07,15,11,52,8.50
2019,07,15,11,53,8.60
2019,07,15,11,54,6.40
2019,07,15,11,55,7.50
2019,07,15,11,56,7.50
2019,07,15,11,57,5.50
2019,07,15,11,58,4.50
2019,07,15,11,59,2.30
2019,07,15,12,00,7.00
2019,07,15,12,01,5.90
2019,07,15,12,02,8.90
2019,07,15,12,03,8.30
2019,07,15,12,04,10.30
2019,07,15,12,05,4.40
2019,07,15,12,06,3.50
2019,07,15,12,07,8.00
2019,07,15,12,08,8.90
2019,07,15,12,09,8.90
2019,07,15,12,10,6.60
2019,07,15,12,11,2.20
2019,07,15,12,12,2.20
2019,07,15,12,13,3.50
2019,07,15,12,14,4.30
2019,07,15,12,15,3.30
2019,07,15,12,16,5.40
2019,07,15,12,17,4.10
2019,07,15,12,18,6.30
2019,07,15,12,19,4.30
2019,07,15,12,20,9.70
2019,07,15,12,21,10.50
2019,07,15,12,22,7.60
2019,07,15,12,23,9.30
2019,07,15,12,24,8.60
2019,07,15,12,25,8.80
2019,07,15,12,26,9.40
2019,07,15,12,27,8.30
2019,07,15,12,28,6.00
2019,07,15,12,29,7.20
2019,07,15,12,30,4.50
2019,07,15,12,31,7.10
2019,07,15,12,32,7.90
2019,07,15,12,33,7.90
2019,07,15,12,34,7.90
2019,07,15,12,35,5.70
2019,07,15,12,36,6.70
2019,07,15,12,37,4.80
2019,07,15,12,38,8.00
2019,07,15,12,39,6.70
2019,07,15,12,40,5.90
2019,07,15,12,41,6.60
2019,07,15,12,42,7.80
2019,07,15,12,43,6.40
2019,07,15,12,44,5.50
2019,07,15,12,45,9.30
2019,07,15,12,46,10.50
2019,07,15,12,47,9.90
2019,07,15,12,48,9.30
2019,07,15,12,49,9.10
2019,07,15,12,50,7.90
2019,07,15,12,51,8.10
2019,07,15,12,52,6.00
2019,07,15,12,53,8.00
2019,07,15,12,54,5.70
2019,07,15,12,55,8.90
2019,07,15,12,56,8.70
2019,07,15,12,57,5.60
2019,07,15,12,58,8.10
2019,07,15,12,59,6.10
2019,07,15,13,00,7.50
2019,07,15,13,01,5.80
2019,07,15,13,02,6.80
2019,07,15,13,03,7.80
2019,07,15,13,04,10.80
2019,07,15,13,05,10.10
2019,07,15,13,06,8.10
2019,07,15,13,07,5.90
2019,07,15,13,08,9.50
2019,07,15,13,09,8.50
2019,07,15,13,10,6.20
2019,07,15,13,11,8.80
2019,07,15,13,12,7.50
2019,07,15,13,13,9.30
2019,07,15,13,14,5.50
2019,07,15,13,15,6.40
2019,07,15,13,16,7.70
2019,07,15,13,17,5.50
2019,07,15,13,18,7.20
2019,07,15,13,19,10.00
2019,07,15,13,20,9.30
2019,07,15,13,21,7.40
2019,07,15,13,22,7.50
2019,07,15,13,23,5.40
2019,07,15,13,24,6.40
2019,07,15,13,25,7.70
2019,07,15,13,26,7.00
2019,07,15,13,27,9.00
2019,07,15,13,28,7.50
2019,07,15,13,29,3.50
2019,07,15,13,30,3.70
2019,07,15,13,31,3.90
2019,07,15,13,32,4.30
2019,07,15,13,33,6.40
2019,07,15,13,34,6.00
2019,07,15,13,35,3.70
2019,07,15,13,36,4.00
2019,07,15,13,37,5.80
2019,07,15,13,38,6.90
2019,07,15,13,39,8.50
2019,07,15,13,40,8.00
2019,07,15,13,41,5.90
2019,07,15,13,42,5.70
2019,07,15,13,43,4.10
2019,07,15,13,44,4.30
2019,07,15,13,45,4.90
2019,07,15,13,46,5.80
2019,07,15,13,47,8.00
2019,07,15,13,48,7.60
2019,07,15,13,49,7.60
2019,07,15,13,50,5.00
2019,07,15,13,51,7.40
2019,07,15,13,52,7.20
2019,07,15,13,53,8.90
2019,07,15,13,54,9.80
2019,07,15,13,55,4.50
2019,07,15,13,56,4.90
2019,07,15,13,57,7.10
2019,07,15,13,58,5.30
2019,07,15,13,59,5.30
2019,07,15,14,00,3.60
2019,07,15,14,01,8.10
2019,07,15,14,02,4.80
2019,07,15,14,03,5.10
2019,07,15,14,04,8.30
2019,07,15,14,05,8.50
2019,07,15,14,06,8.30
2019,07,15,14,07,9.10
2019,07,15,14,08,8.60
2019,07,15,14,09,6.70
2019,07,15,14,10,7.30
2019,07,15,14,11,6.10
2019,07,15,14,12,4.70
2019,07,15,14,13,3.00
2019,07,15,14,14,4.10
2019,07,15,14,15,5.10
2019,07,15,14,16,2.70
2019,07,15,14,17,2.90
2019,07,15,14,18,2.30
2019,07,15,14,19,2.80
2019,07,15,14,20,3.70
2019,07,15,14,21,3.60
2019,07,15,14,22,5.10
2019,07,15,14,23,4.70
2019,07,15,14,24,5.50
2019,07,15,14,25,5.50
2019,07,15,14,26,5.70
2019,07,15,14,27,8.10
2019,07,15,14,28,6.40
2019,07,15,14,29,3.90
2019,07,15,14,30,4.40
2019,07,15,14,31,0.60
2019,07,15,14,32,1.50
2019,07,15,14,33,2.10
2019,07,15,14,34,2.00
2019,07,15,14,35,5.90
2019,07,15,14,36,3.70
2019,07,15,14,37,7.50
2019,07,15,14,38,7.60
2019,07,15,14,39,11.40
2019,07,15,14,40,7.00
2019,07,15,14,41,6.30
2019,07,15,14,42,4.10
2019,07,15,14,43,4.40
2019,07,15,14,44,5.10
2019,07,15,14,45,2.40
2019,07,15,14,46,4.80
2019,07,15,14,47,1.70
2019,07,15,14,48,5.30
2019,07,15,14,49,3.90
2019,07,15,14,50,5.30
2019,07,15,14,51,2.00
2019,07,15,14,52,5.10
2019,07,15,14,53,4.10
2019,07,15,14,54,3.90
2019,07,15,14,55,3.60
2019,07,15,14,56,3.80
2019,07,15,14,57,4.20
2019,07,15,14,58,6.40
2019,07,15,14,59,5.10
2019,07,15,15,00,6.40
2019,07,15,15,01,3.70
2019,07,15,15,02,4.20
2019,07,15,15,03,5.80
2019,07,15,15,04,5.10
2019,07,15,15,05,3.80
2019,07,15,15,06,1.40
2019,07,15,15,07,2.30
2019,07,15,15,08,2.60
2019,07,15,15,09,3.80
2019,07,15,15,10,2.70
2019,07,15,15,11,6.50
2019,07,15,15,12,6.20
2019,07,15,15,13,4.80
2019,07,15,15,14,6.20
2019,07,15,15,15,3.50
2019,07,15,15,16,6.00
2019,07,15,15,17,5.40
2019,07,15,15,18,4.80
2019,07,15,15,19,8.20
2019,07,15,15,20,9.10
2019,07,15,15,21,6.50
2019,07,15,15,22,5.90
2019,07,15,15,23,6.00
2019,07,15,15,24,4.70
2019,07,15,15,25,3.50
2019,07,15,15,26,5.00
2019,07,15,15,27,3.90
2019,07,15,15,28,6.80
2019,07,15,15,29,8.30
2019,07,15,15,30,3.90
2019,07,15,15,31,7.80
2019,07,15,15,32,5.30
2019,07,15,15,33,4.30
2019,07,15,15,34,5.40
2019,07,15,15,35,4.30
2019,07,15,15,36,4.30
2019,07,15,15,37,2.20
2019,07,15,15,38,3.10
2019,07,15,15,39,2.10
2019,07,15,15,40,3.00
2019,07,15,15,41,6.60
2019,07,15,15,42,3.90
2019,07,15,15,43,4.30
2019,07,15,15,44,5.10
2019,07,15,15,45,5.60
2019,07,15,15,46,4.90
2019,07,15,15,47,4.50
2019,07,15,15,48,4.30
2019,07,15,15,49,3.60
2019,07,15,15,50,4.00
2019,07,15,15,51,1.60
2019,07,15,15,52,5.00
2019,07,15,15,53,5.80
2019,07,15,15,54,4.60
2019,07,15,15,55,3.50
2019,07,15,15,56,6.20
2019,07,15,15,57,3.10
2019,07,15,15,58,3.50
2019,07,15,15,59,4.40
2019,07,15,16,00,5.20
2019,07,15,16,01,5.50
2019,07,15,16,02,3.90
2019,07,15,16,03,5.60
2019,07,15,16,04,5.30
2019,07,15,16,05,4.60
2019,07,15,16,06,5.50
2019,07,15,16,07,5.60
2019,07,15,16,08,6.20
2019,07,15,16,09,4.30
2019,07,15,16,10,4.80
2019,07,15,16,11,3.60
2019,07,15,16,12,5.50
2019,07,15,16,13,6.00
2019,07,15,16,14,6.10
2019,07,15,16,15,6.40
2019,07,15,16,16,8.40
2019,07,15,16,17,5.10
2019,07,15,16,18,4.30
2019,07,15,16,19,6.70
2019,07,15,16,20,4.40
2019,07,15,16,21,6.50
2019,07,15,16,22,6.10
2019,07,15,16,23,6.30
2019,07,15,16,24,8.40
2019,07,15,16,25,7.70
2019,07,15,16,26,9.70
2019,07,15,16,27,4.10
2019,07,15,16,28,5.50
2019,07,15,16,29,3.20
2019,07,15,16,30,2.20
2019,07,15,16,31,3.00
2019,07,15,16,32,3.00
2019,07,15,16,33,2.00
2019,07,15,16,34,3.10
2019,07,15,16,35,4.80
2019,07,15,16,36,4.70
2019,07,15,16,37,2.80
2019,07,15,16,38,2.80
2019,07,15,16,39,2.60
2019,07,15,16,40,3.20
2019,07,15,16,41,6.90
2019,07,15,16,42,6.40
2019,07,15,16,43,7.00
2019,07,15,16,44,5.90
2019,07,15,16,45,5.80
2019,07,15,16,46,4.80
2019,07,15,16,47,9.90
2019,07,15,16,48,5.10
2019,07,15,16,49,6.10
2019,07,15,16,50,5.40
2019,07,15,16,51,8.60
2019,07,15,16,52,6.10
2019,07,15,16,53,7.30
2019,07,15,16,54,4.60
2019,07,15,16,55,6.40
2019,07,15,16,56,7.20
2019,07,15,16,57,8.40
2019,07,15,16,58,5.60
2019,07,15,16,59,6.10
2019,07,15,17,00,7.20
2019,07,15,17,01,6.70
2019,07,15,17,02,6.30
2019,07,15,17,03,4.40
2019,07,15,17,04,5.40
2019,07,15,17,05,3.30
2019,07,15,17,06,4.00
2019,07,15,17,07,3.70
2019,07,15,17,08,1.40
2019,07,15,17,09,0.60
2019,07,15,17,10,1.00
2019,07,15,17,11,0.50
2019,07,15,17,12,0.50
2019,07,15,17,13,1.90
2019,07,15,17,14,0.80
2019,07,15,17,15,3.60
2019,07,15,17,16,5.80
2019,07,15,17,17,1.90
2019,07,15,17,18,0.30
2019,07,15,17,19,0.30
2019,07,15,17,20,1.70
2019,07,15,17,21,2.00
2019,07,15,17,22,1.90
2019,07,15,17,23,2.50
2019,07,15,17,24,3.30
2019,07,15,17,25,1.10
2019,07,15,17,26,2.70
2019,07,15,17,27,4.20
2019,07,15,17,28,3.50
2019,07,15,17,29,2.00
2019,07,15,17,30,3.30
2019,07,15,17,31,1.40
2019,07,15,17,32,2.30
2019,07,15,17,33,4.10
2019,07,15,17,34,2.30
2019,07,15,17,35,1.60
2019,07,15,17,36,2.30
2019,07,15,17,37,4.00
2019,07,15,17,38,4.40
2019,07,15,17,39,2.40
2019,07,15,17,40,3.50
2019,07,15,17,41,8.90
2019,07,15,17,42,8.90
2019,07,15,17,43,7.40
2019,07,15,17,44,9.80
2019,07,15,17,45,8.60
2019,07,15,17,46,10.10
2019,07,15,17,47,8.00
2019,07,15,17,48,6.50
2019,07,15,17,49,5.00
2019,07,15,17,50,5.50
2019,07,15,17,51,8.40
2019,07,15,17,52,5.70
2019,07,15,17,53,5.50
2019,07,15,17,54,8.30
2019,07,15,17,55,4.50
2019,07,15,17,56,7.80
2019,07,15,17,57,8.90
2019,07,15,17,58,5.00
2019,07,15,17,59,5.10
2019,07,15,18,00,8.80
2019,07,15,18,01,7.80
2019,07,15,18,02,8.10
2019,07,15,18,03,7.50
2019,07,15,18,04,10.10
2019,07,15,18,05,8.70
2019,07,15,18,06,7.60